Temperature
29 30 30 29 29 29 29 29 29 29 29 29 28 27 26 25 24 23 23 22 21 21 20 20 19 19 19 19 18 18 18 18 18 17 17 17 17 17 17 17 16 16 16 16
28 29 29 29 29 29 29 29 29 29 29 28 27 26 25 24 23 23 22 22 21 20 20 19 19 19 18 18 18 18 18 18 17 17 17 17 17 17 16 16 16 16 16 16
28 28 28 28 28 29 29 29 29 28 28 27 26 25 24 23 23 22 22 21 20 20 19 19 19 18 18 18 18 18 18 17 17 17 17 17 17 16 16 16 16 16 16 16
28 27 26 28 28 28 28 28 28 28 27 26 25 24 23 22 22 21 21 20 20 20 19 19 19 19 18 18 17 17 17 17 17 17 17 17 16 16 16 16 16 16 16 15
28 27 27 27 27 27 27 27 27 27 26 25 24 24 23 21 21 20 20 19 19 19 19 19 18 18 18 17 17 17 17 17 16 16 16 16 16 16 16 15 15 15 15 15
27 26 26 27 27 26 27 26 26 25 25 24 24 25 24 21 20 19 19 19 19 19 18 18 18 17 17 17 17 17 16 16 16 16 16 16 16 16 15 15 15 15 15 15
26 26 27 27 26 26 26 26 25 24 23 23 23 24 21 20 19 19 18 18 18 18 18 17 17 17 17 17 17 16 16 16 16 16 16 15 15 15 15 15 15 15 15 15
26 26 26 25 26 26 25 23 23 23 22 22 21 20 20 19 19 18 18 18 17 17 17 17 17 16 16 16 16 16 16 16 15 15 15 15 15 15 15 15 15 15 15 15
26 26 24 24 24 23 22 22 22 21 21 20 20 20 19 18 18 18 17 17 17 17 17 17 16 16 16 16 16 16 15 15 15 15 15 15 15 15 15 15 15 15 15 15
24 24 23 22 22 21 21 21 21 20 20 20 20 19 18 18 18 17 17 17 17 16 16 16 16 16 15 15 15 15 15 15 15 14 14 14 14 14 14 14 14 14 14 14
23 23 22 22 21 21 20 20 20 20 20 19 19 18 18 17 17 17 17 16 16 16 16 15 15 15 15 15 15 15 15 14 14 14 14 14 14 14 14 14 14 14 14 13
23 22 23 21 20 20 20 19 19 19 19 19 18 18 17 17 16 16 16 16 16 16 15 15 15 15 15 15 15 14 14 14 14 14 14 14 14 14 14 14 13 13 13 13
20 20 20 19 19 19 19 19 18 18 18 18 17 17 17 16 16 16 16 16 15 15 15 15 15 15 14 14 14 14 14 14 14 14 14 14 14 14 13 13 13 13 13 13
18 18 18 19 18 18 18 18 18 17 17 17 17 16 16 16 16 15 15 15 15 15 15 15 14 14 14 14 14 14 14 14 14 13 13 13 13 13 13 13 13 13 13 13
17 18 18 18 18 18 17 17 17 17 17 16 16 16 16 15 15 15 15 15 14 14 14 14 14 14 14 13 13 13 13 13 13 13 13 13 13 13 13 13 13 12 12 12
17 17 17 17 17 17 17 17 17 17 16 16 16 15 15 15 15 14 14 14 14 14 14 14 13 13 13 13 13 13 13 13 12 12 13 12 12 12 13 12 12 12 12 12
17 17 17 17 17 17 17 17 16 16 16 15 15 15 15 14 14 14 14 14 14 14 13 13 13 13 13 13 13 13 13 13 12 12 12 12 12 12 12 12 12 12 12 11
16 16 16 16 16 16 16 16 16 15 15 15 15 14 14 14 14 14 14 14 14 13 13 13 13 13 13 12 12 12 12 12 12 12 11 11 11 11 11 11 11 11 11 11
16 16 15 15 15 15 15 15 15 15 14 14 14 14 14 14 14 13 13 13 13 13 13 13 13 12 12 12 12 12 12 12 12 12 11 11 11 11 11 11 11 11 11 10
15 15 15 15 14 14 14 14 14 14 14 14 14 14 13 13 13 13 13 13 13 13 12 12 12 12 12 12 12 12 12 12 12 11 11 11 11 11 11 11 11 10 10 10
14 14 14 14 14 13 13 13 13 13 13 13 13 13 13 13 13 12 12 13 12 12 12 12 12 12 12 11 11 11 11 11 11 11 11 11 11 10 10 10 10 10 10 10
13 13 13 13 13 13 13 13 13 13 13 13 13 13 12 12 12 12 12 12 12 12 12 12 11 11 11 11 11 11 11 11 11 11 11 10 10 10 10 10 10 10 9 9
13 13 13 13 13 13 13 13 13 13 13 12 12 12 12 12 12 12 12 12 12 12 11 11 11 11 11 11 11 11 11 10 10 10 10 10 10 10 9 9 9 9 9 9
12 12 12 12 12 12 12 12 12 12 12 12 12 12 12 12 12 12 12 11 11 11 11 11 11 11 10 10 10 10 10 10 10 10 10 10 10 9 9 9 9 9 8 8
12 12 12 12 12 12 12 12 12 12 12 12 12 12 12 12 12 11 11 11 11 11 11 11 10 10 10 10 10 10 10 10 10 9 9 9 9 9 9 8 8 8 8 8
12 12 12 12 12 12 12 12 12 12 12 12 12 12 12 11 11 11 11 11 10 10 10 10 10 10 10 10 9 9 9 9 9 9 9 9 9 8 8 8 8 8 8 7
12 12 12 12 12 12 12 12 12 12 12 12 12 11 11 11 11 11 10 10 10 10 10 10 10 10 9 9 9 9 9 9 9 9 8 8 8 8 8 8 7 7 7 7
Wind_Speed
6 4 5 6 7 7 8 9 8 6 5 2 1 2 3 3 4 4 4 4 3 3 2 2 2 1 1 1 1 1 2 3 3 3 4 4 4 4 4 4 5 4 5 4
8 7 6 7 7 8 8 8 8 7 5 1 1 2 3 4 4 3 3 3 3 3 2 2 2 1 1 1 1 1 2 3 3 3 3 4 4 4 4 5 5 5 5 5
9 8 8 10 8 9 8 7 8 8 4 1 1 2 3 3 3 3 2 2 2 2 2 2 2 1 1 1 1 1 2 3 3 3 3 4 5 4 4 5 5 5 6 6
8 8 12 4 0 4 6 6 5 4 1 1 1 2 2 2 2 1 1 1 1 1 1 1 1 1 1 1 1 2 2 3 4 4 4 4 5 5 5 5 5 6 6 6
9 11 9 6 4 4 6 6 3 3 2 1 1 3 3 2 2 2 1 1 1 1 1 1 0 0 0 1 1 2 3 3 4 4 5 5 5 6 5 5 6 6 6 6
9 10 10 4 3 2 5 7 1 2 2 3 3 4 2 3 2 3 2 2 1 2 2 2 1 1 0 1 2 3 3 3 4 4 5 5 6 6 6 6 6 7 6 6
11 10 7 2 3 4 6 2 1 1 2 4 3 2 2 3 3 2 2 2 2 3 2 2 2 2 1 2 2 3 4 3 4 4 5 5 5 5 5 6 6 6 6 6
9 11 7 4 4 3 2 2 0 1 2 2 1 2 3 3 3 2 2 2 3 3 2 2 2 2 2 3 3 3 4 4 4 4 5 4 5 5 5 5 6 6 6 6
5 3 2 3 1 1 1 1 1 1 2 3 3 3 3 2 3 2 2 2 3 3 2 2 2 2 3 4 4 4 4 4 4 5 5 5 5 5 4 4 5 5 5 5
4 4 2 1 1 1 1 2 2 2 3 4 4 3 3 2 2 2 2 2 2 2 2 3 3 3 3 4 4 4 4 5 5 5 5 4 5 5 5 4 5 5 5 5
6 4 3 3 2 1 1 1 1 2 3 4 4 3 3 2 2 1 1 1 1 2 2 3 3 3 4 4 4 4 5 5 5 4 4 4 4 4 5 4 4 5 6 6
6 4 4 2 1 1 1 2 2 3 3 3 3 4 3 2 1 1 0 1 1 2 2 3 4 4 4 4 4 5 5 5 5 4 4 4 4 4 2 4 3 4 5 6
4 3 3 2 2 1 2 2 3 3 3 3 3 3 3 2 1 0 1 1 2 2 3 3 4 4 5 5 5 5 5 5 5 5 5 5 5 5 5 4 3 4 5 5
2 2 3 3 3 2 2 3 3 3 3 3 3 3 2 2 1 1 1 2 3 3 4 4 5 4 5 5 5 5 6 4 5 5 5 5 5 5 5 6 6 5 3 3
3 3 3 3 3 3 4 4 4 4 3 3 3 2 2 1 1 1 2 2 3 4 4 5 5 5 4 5 5 5 5 4 4 5 5 5 5 5 5 5 5 6 5 2
3 3 4 4 4 4 5 5 5 4 3 3 3 2 2 1 2 2 2 3 4 5 5 6 6 5 4 5 5 5 4 3 4 5 4 4 4 4 5 5 5 5 5 5
3 4 4 4 4 4 4 4 4 4 4 3 3 3 2 2 2 3 3 4 4 5 6 6 6 5 5 5 5 5 5 3 3 5 4 4 4 5 5 5 5 5 5 4
2 3 4 4 4 4 4 4 4 4 4 3 3 3 3 3 3 3 4 4 4 5 5 5 5 5 5 4 4 5 5 4 4 4 4 4 5 5 5 5 5 5 5 3
1 2 2 2 3 3 3 4 3 3 3 3 3 2 2 3 3 3 4 5 5 6 5 5 5 6 5 4 5 5 5 5 4 4 4 3 4 4 4 5 5 5 4 4
2 2 2 2 2 2 2 2 2 3 3 3 2 2 2 3 3 3 4 5 4 5 5 5 5 5 5 5 5 5 5 5 5 4 4 4 4 4 4 4 5 5 4 4
2 2 2 2 2 1 1 1 1 2 2 2 2 2 3 3 4 4 5 5 3 4 5 4 4 4 4 5 5 5 4 4 5 5 4 4 4 4 4 4 4 4 5 5
1 1 1 1 1 1 0 0 1 1 2 2 2 2 3 4 4 4 4 4 3 2 4 4 4 4 5 6 4 4 4 4 4 4 4 4 4 4 4 5 5 5 5 4
1 1 1 1 1 0 1 1 2 2 2 3 3 3 4 4 4 4 4 2 3 2 3 3 4 4 6 5 4 4 4 4 4 4 4 3 3 4 4 5 5 5 4 4
1 1 1 0 0 1 1 2 2 2 3 3 3 3 4 4 4 3 3 0 1 2 3 2 1 3 6 3 3 3 3 4 4 4 4 4 3 3 3 4 4 4 4 4
1 1 1 1 1 2 2 2 2 3 3 2 3 3 3 3 3 2 2 2 1 3 2 1 2 4 4 3 3 3 3 4 5 5 4 4 4 3 3 4 4 4 4 3
1 2 2 2 2 2 2 2 2 2 2 2 2 2 2 2 1 1 2 2 2 2 2 1 1 2 3 3 3 3 3 3 3 3 3 3 4 4 3 3 4 3 3 3
2 2 2 2 2 2 2 3 3 3 2 2 2 2 2 2 2 1 1 1 1 1 1 2 2 2 3 3 3 3 3 3 4 4 3 3 3 3 3 3 3 3 3 3
Wind_Direction
245 237 221 231 235 231 243 262 272 272 269 276 230 190 168 162 151 159 163 168 175 185 178 180 179 188 213 248 283 306 289 289 294 291 290 290 290 283 280 278 276 276 274 271
227 225 228 240 241 238 243 254 259 262 265 321 118 135 156 166 167 172 174 181 189 192 191 194 191 193 214 247 281 283 286 296 300 293 293 296 292 286 279 276 278 274 269 267
230 223 232 236 238 237 241 247 256 257 264 156 181 182 181 181 186 187 189 189 194 204 200 201 206 210 218 249 273 285 297 300 294 291 294 293 293 291 282 277 274 272 271 267
232 218 235 233 155 250 247 241 249 267 237 190 228 184 166 175 175 191 186 170 170 196 204 208 222 213 236 269 288 294 299 302 301 297 291 289 288 288 284 280 277 274 272 270
232 232 235 220 205 225 238 239 233 245 233 206 136 177 162 131 145 144 120 100 93 116 90 45 23 8 204 276 293 301 309 306 306 299 294 290 287 289 287 282 278 276 274 273
234 241 242 222 156 211 240 231 181 237 222 194 193 226 156 117 129 114 91 68 54 67 74 57 17 8 318 287 303 309 312 306 300 293 291 289 289 287 285 279 273 275 274 272
233 240 239 129 140 195 233 265 83 206 196 202 231 310 102 126 127 108 88 66 55 57 59 40 10 353 324 321 321 320 316 309 302 296 287 286 290 291 289 283 282 280 279 274
231 239 232 125 169 225 340 31 70 170 183 187 137 111 126 126 123 108 83 62 49 45 43 31 12 345 332 332 330 325 314 307 302 299 294 298 297 295 293 290 284 281 278 277
239 240 88 146 166 17 343 291 219 186 183 173 165 149 142 131 126 111 85 65 50 41 40 30 16 355 339 338 333 322 311 303 297 295 294 295 290 291 289 286 289 293 291 288
230 220 196 204 256 286 279 263 235 210 195 188 175 161 156 143 126 116 101 77 53 35 21 9 4 359 343 331 322 313 309 307 300 294 292 291 289 289 292 299 299 299 298 298
230 233 239 228 237 257 261 210 190 187 190 185 171 171 163 155 145 136 109 52 23 11 2 353 351 346 341 336 325 316 311 306 299 297 300 296 289 291 291 298 303 296 300 300
246 231 248 237 257 250 209 187 179 175 177 177 171 170 166 162 162 167 126 349 336 340 339 339 339 340 341 332 322 314 307 305 301 298 301 297 299 298 306 288 292 273 283 290
266 266 271 249 246 239 220 195 184 178 174 173 168 166 164 158 170 212 290 310 318 316 316 319 323 331 335 329 321 315 309 306 301 300 298 295 297 299 300 298 260 252 257 268
228 235 230 227 226 215 191 171 163 159 161 161 158 161 160 159 167 247 303 313 313 313 309 309 312 319 323 321 314 309 306 305 298 298 299 299 299 300 303 305 305 306 272 231
230 243 225 213 202 191 182 173 168 166 163 160 163 169 179 190 214 269 296 305 305 303 309 307 305 307 309 308 307 306 309 316 313 306 302 305 307 304 304 308 308 309 315 325
222 204 193 195 193 194 192 190 186 182 177 178 189 195 197 213 245 267 287 301 301 305 307 303 299 299 298 296 296 292 297 308 304 302 303 307 304 303 307 309 309 310 313 323
183 192 195 198 201 203 203 200 196 193 189 188 193 197 204 220 245 265 280 292 299 299 299 300 301 302 293 284 285 293 300 294 274 295 305 307 307 304 303 303 305 308 310 333
209 212 213 209 205 199 196 194 193 193 193 191 192 199 217 241 262 280 285 294 298 299 302 301 306 299 287 282 283 291 294 292 290 292 292 297 301 302 300 300 303 304 309 323
124 147 163 179 186 185 187 190 191 190 186 193 205 224 246 264 278 283 290 292 293 295 304 307 299 290 292 292 286 275 285 292 291 288 290 285 284 292 299 301 301 302 307 313
107 114 119 121 127 145 169 183 188 190 194 200 209 239 263 270 274 276 280 282 292 308 309 306 294 295 295 291 285 286 287 291 296 296 294 295 294 295 298 302 305 311 312 310
131 134 132 133 122 121 154 182 197 207 215 220 233 259 273 281 280 277 278 286 305 314 304 291 291 305 303 307 281 298 300 301 300 299 297 297 299 300 302 304 309 313 312 313
136 138 137 136 132 132 125 257 230 230 248 266 284 293 292 287 283 280 276 287 302 323 299 302 311 342 326 306 298 306 307 307 308 309 308 306 302 303 307 312 310 311 311 313
117 128 128 116 124 166 277 286 288 276 269 278 285 284 287 291 289 284 282 285 297 325 308 327 3 360 314 292 303 308 312 313 311 308 304 301 302 307 312 313 317 319 319 317
128 118 107 66 215 231 265 283 292 283 274 274 277 281 284 283 281 278 289 292 297 304 308 23 27 308 284 286 301 307 316 315 308 305 307 305 307 310 313 315 320 321 317 317
164 170 193 227 259 271 277 272 274 278 275 274 278 278 279 285 290 304 313 313 313 285 298 147 194 271 283 308 314 316 315 319 318 316 315 315 317 321 322 327 332 329 327 328
202 218 227 244 264 271 271 277 283 287 285 282 287 294 299 300 288 278 276 283 296 296 308 336 345 277 308 322 325 322 325 327 319 314 325 324 325 331 338 340 332 330 331 333
226 232 233 244 246 253 267 275 276 280 281 277 286 296 299 303 297 283 274 287 292 314 339 352 353 344 341 340 338 335 333 335 336 334 337 332 330 332 336 328 323 326 329 336
Height
1493 1492 1494 1497 1499 1499 1501 1499 1502 1501 1500 1501 1503 1507 1511 1513 1515 1516 1518 1519 1520 1521 1522 1523 1523 1523 1524 1524 1524 1523 1523 1523 1522 1521 1519 1518 1517 1516 1515 1514 1513 1512 1511 1510
1499 1495 1495 1498 1497 1498 1499 1498 1498 1499 1501 1501 1505 1508 1511 1513 1515 1516 1517 1518 1519 1520 1520 1521 1521 1522 1522 1522 1522 1521 1521 1520 1519 1518 1517 1516 1515 1513 1512 1511 1510 1509 1508 1507
1499 1496 1499 1503 1496 1496 1497 1495 1497 1499 1500 1502 1505 1508 1511 1513 1514 1515 1516 1517 1518 1519 1519 1519 1520 1520 1520 1520 1520 1519 1518 1517 1516 1515 1514 1513 1512 1511 1509 1508 1507 1506 1505 1504
1496 1503 1513 1496 1492 1493 1495 1495 1496 1498 1500 1503 1506 1508 1511 1512 1514 1515 1516 1516 1517 1518 1518 1518 1518 1518 1518 1518 1518 1517 1516 1515 1514 1513 1511 1510 1509 1508 1506 1505 1504 1503 1502 1501
1496 1501 1500 1495 1493 1494 1496 1496 1497 1498 1501 1504 1506 1507 1509 1512 1513 1515 1515 1516 1516 1516 1517 1517 1517 1516 1515 1516 1516 1515 1514 1512 1511 1510 1509 1508 1506 1505 1503 1502 1501 1500 1499 1497
1496 1502 1504 1493 1492 1495 1497 1498 1498 1500 1502 1504 1505 1503 1506 1511 1513 1514 1514 1515 1515 1515 1515 1515 1515 1515 1514 1513 1513 1512 1511 1510 1509 1507 1506 1505 1503 1502 1501 1499 1498 1497 1495 1494
1495 1497 1492 1490 1493 1496 1502 1500 1499 1500 1502 1504 1504 1505 1509 1511 1512 1513 1514 1514 1514 1514 1514 1514 1513 1513 1512 1511 1510 1510 1509 1507 1506 1505 1503 1502 1501 1499 1497 1496 1495 1493 1492 1490
1493 1497 1497 1493 1493 1495 1498 1499 1500 1501 1503 1505 1506 1507 1509 1510 1511 1512 1513 1513 1513 1513 1513 1512 1512 1511 1510 1509 1508 1507 1506 1505 1503 1502 1501 1500 1498 1496 1494 1493 1491 1490 1488 1487
1489 1492 1493 1494 1495 1498 1499 1500 1501 1502 1503 1505 1506 1507 1508 1510 1511 1511 1512 1512 1512 1512 1512 1511 1510 1509 1508 1507 1506 1505 1503 1502 1500 1499 1498 1496 1495 1494 1492 1490 1489 1487 1486 1484
1490 1490 1493 1496 1497 1498 1499 1500 1501 1502 1503 1504 1505 1506 1508 1509 1510 1511 1511 1511 1511 1511 1511 1510 1509 1507 1506 1505 1504 1502 1501 1499 1498 1496 1495 1493 1492 1491 1490 1488 1486 1484 1483 1481
1490 1492 1494 1495 1497 1498 1499 1499 1500 1501 1502 1503 1504 1505 1507 1508 1508 1509 1510 1510 1510 1509 1509 1508 1507 1506 1504 1503 1501 1500 1498 1497 1495 1494 1493 1491 1489 1488 1486 1485 1483 1482 1480 1479
1487 1491 1492 1495 1496 1497 1498 1498 1499 1500 1501 1502 1503 1504 1505 1506 1507 1508 1508 1508 1508 1508 1507 1506 1505 1504 1502 1500 1499 1497 1496 1494 1493 1492 1490 1489 1487 1485 1483 1481 1480 1478 1476 1475
1491 1492 1493 1494 1496 1497 1497 1498 1498 1499 1500 1501 1502 1503 1504 1505 1506 1506 1506 1506 1506 1506 1505 1504 1503 1502 1500 1498 1496 1494 1493 1492 1491 1489 1488 1486 1484 1482 1480 1479 1477 1475 1473 1471
1491 1492 1493 1494 1495 1495 1496 1497 1497 1498 1499 1500 1501 1502 1503 1503 1504 1505 1505 1505 1504 1504 1503 1502 1501 1499 1498 1496 1494 1492 1490 1489 1487 1486 1485 1483 1482 1480 1478 1476 1474 1472 1470 1468
1490 1490 1491 1492 1493 1494 1494 1495 1496 1497 1498 1499 1500 1501 1501 1502 1502 1503 1503 1503 1502 1501 1501 1500 1498 1497 1495 1493 1491 1490 1488 1486 1485 1483 1482 1481 1479 1478 1476 1474 1472 1470 1468 1466
1488 1489 1490 1491 1491 1492 1493 1493 1494 1495 1496 1497 1498 1499 1500 1500 1500 1500 1501 1500 1500 1499 1498 1496 1495 1493 1492 1490 1488 1487 1485 1483 1482 1481 1479 1478 1476 1475 1474 1472 1470 1468 1466 1464
1486 1487 1488 1489 1489 1490 1491 1492 1493 1493 1494 1495 1496 1497 1497 1498 1498 1498 1498 1497 1497 1495 1494 1493 1491 1490 1488 1487 1486 1485 1483 1481 1479 1478 1477 1476 1474 1472 1471 1470 1468 1466 1465 1462
1485 1485 1486 1487 1487 1488 1489 1490 1491 1492 1493 1493 1493 1494 1495 1495 1495 1495 1495 1495 1494 1492 1491 1489 1488 1486 1485 1484 1482 1481 1480 1479 1477 1476 1474 1473 1471 1470 1469 1467 1466 1464 1462 1460
1484 1485 1485 1486 1486 1487 1487 1488 1489 1490 1490 1491 1491 1491 1492 1492 1492 1492 1492 1491 1490 1489 1488 1486 1484 1483 1482 1480 1479 1477 1477 1476 1474 1473 1472 1470 1469 1468 1466 1465 1463 1462 1460 1458
1484 1484 1484 1484 1485 1485 1486 1486 1487 1488 1488 1489 1489 1489 1489 1490 1489 1489 1489 1488 1487 1486 1485 1483 1481 1480 1478 1477 1475 1475 1474 1473 1472 1471 1469 1468 1467 1465 1464 1462 1461 1460 1458 1457
1483 1483 1483 1483 1484 1484 1485 1485 1485 1486 1486 1487 1487 1487 1487 1487 1486 1486 1485 1485 1484 1482 1481 1480 1478 1476 1475 1474 1472 1472 1471 1470 1469 1468 1467 1465 1464 1462 1461 1460 1458 1457 1456 1454
1482 1482 1482 1482 1482 1483 1484 1484 1484 1484 1485 1485 1485 1485 1484 1484 1483 1482 1482 1481 1480 1479 1478 1477 1476 1474 1472 1471 1471 1469 1468 1467 1466 1465 1464 1463 1461 1460 1459 1457 1456 1455 1453 1452
1481 1481 1481 1482 1481 1482 1482 1483 1483 1482 1483 1483 1482 1482 1482 1481 1480 1479 1479 1478 1477 1476 1475 1475 1473 1471 1469 1468 1468 1467 1466 1465 1464 1463 1462 1460 1459 1457 1456 1455 1454 1452 1451 1449
1480 1480 1481 1481 1481 1480 1481 1481 1481 1481 1481 1481 1480 1480 1479 1478 1477 1476 1476 1475 1474 1473 1472 1471 1470 1468 1467 1466 1466 1465 1464 1463 1461 1460 1459 1458 1456 1455 1454 1453 1451 1450 1448 1446
1479 1480 1480 1480 1480 1480 1479 1479 1479 1479 1479 1479 1478 1478 1477 1476 1475 1474 1473 1472 1471 1470 1470 1469 1467 1466 1466 1465 1464 1463 1462 1461 1459 1458 1457 1456 1454 1453 1452 1450 1449 1447 1446 1444
1478 1479 1479 1479 1479 1479 1478 1478 1478 1478 1477 1476 1476 1475 1475 1474 1473 1472 1471 1470 1470 1469 1468 1467 1466 1465 1464 1464 1463 1462 1460 1459 1458 1456 1455 1453 1452 1451 1449 1448 1446 1445 1443 1442
1477 1477 1477 1478 1477 1477 1477 1476 1476 1476 1475 1474 1474 1473 1473 1473 1472 1471 1470 1470 1469 1468 1467 1466 1465 1464 1463 1462 1461 1460 1459 1457 1456 1454 1453 1451 1450 1448 1447 1446 1444 1443 1441 1440